TimeEST,TemperatureF,Dew PointF,Humidity,Sea Level PressureIn,VisibilityMPH,Wind Direction,Wind SpeedMPH,Gust SpeedMPH,PrecipitationIn,Events,Conditions,WindDirDegrees,DateUTC
12:00 AM,33.1,32.0,96,29.70,-9999.0,Calm,Calm,-,0.00,Snow,Light Snow,0,2013-02-14 05:00:00
12:10 AM,33.8,32.0,93,29.70,-9999.0,NNW,4.6,-,0.00,Snow,Light Snow,330,2013-02-14 05:10:00
12:55 AM,33.8,32.0,93,29.71,-9999.0,Calm,Calm,-,0.00,Snow,Light Snow,0,2013-02-14 05:55:00
1:00 AM,33.8,32.0,93,29.71,-9999.0,Calm,Calm,-,0.00,Snow,Light Snow,0,2013-02-14 06:00:00
1:06 AM,33.1,32.0,96,29.71,-9999.0,Calm,Calm,-,0.00,Snow,Light Snow,0,2013-02-14 06:06:00
3:00 AM,33.1,32.0,96,29.77,-9999.0,NW,3.5,-,N/A,,Overcast,320,2013-02-14 08:00:00
4:00 AM,33.8,32.0,93,29.80,-9999.0,West,3.5,-,N/A,,Overcast,280,2013-02-14 09:00:00
4:06 AM,33.1,32.0,96,29.80,-9999.0,WNW,4.6,-,N/A,,Overcast,290,2013-02-14 09:06:00
4:15 AM,33.8,32.0,93,29.80,-9999.0,Calm,Calm,-,N/A,,Overcast,0,2013-02-14 09:15:00
4:49 AM,32.0,30.2,93,29.81,-9999.0,West,3.5,-,N/A,,Overcast,280,2013-02-14 09:49:00
5:00 AM,30.9,30.9,100,29.82,-9999.0,West,4.6,-,N/A,,Mostly Cloudy,280,2013-02-14 10:00:00
5:20 AM,32.0,30.2,93,29.83,-9999.0,WNW,4.6,-,N/A,,Mostly Cloudy,290,2013-02-14 10:20:00
5:37 AM,32.0,30.2,93,29.83,-9999.0,WNW,5.8,-,N/A,,Overcast,290,2013-02-14 10:37:00
6:00 AM,32.0,30.9,96,29.85,-9999.0,WNW,4.6,-,N/A,,Overcast,290,2013-02-14 11:00:00
7:00 AM,33.1,32.0,96,29.89,-9999.0,WNW,3.5,-,N/A,,Overcast,300,2013-02-14 12:00:00
8:00 AM,33.1,33.1,100,29.92,-9999.0,West,5.8,-,N/A,,Overcast,280,2013-02-14 13:00:00
9:00 AM,34.0,33.1,96,29.94,-9999.0,West,4.6,-,N/A,,Overcast,280,2013-02-14 14:00:00
9:33 AM,35.6,33.8,93,29.95,-9999.0,WNW,3.5,-,N/A,,Overcast,300,2013-02-14 14:33:00
10:00 AM,37.0,34.0,89,29.96,-9999.0,NNW,4.6,-,N/A,,Overcast,340,2013-02-14 15:00:00
11:00 AM,39.9,34.0,79,29.96,-9999.0,NW,6.9,-,N/A,,Scattered Clouds,320,2013-02-14 16:00:00
12:00 PM,42.1,32.0,67,29.96,-9999.0,Calm,Calm,-,N/A,,Clear,0,2013-02-14 17:00:00
1:00 PM,44.1,28.9,55,29.95,-9999.0,WNW,6.9,-,N/A,,Clear,300,2013-02-14 18:00:00
2:00 PM,46.0,30.0,54,29.94,-9999.0,SW,5.8,-,N/A,,Scattered Clouds,220,2013-02-14 19:00:00
3:00 PM,46.9,28.9,50,29.95,-9999.0,West,4.6,-,N/A,,Clear,280,2013-02-14 20:00:00
4:00 PM,46.9,28.0,48,29.96,-9999.0,WSW,8.1,-,N/A,,Partly Cloudy,240,2013-02-14 21:00:00
5:00 PM,44.1,28.9,55,29.97,-9999.0,WSW,4.6,-,N/A,,Partly Cloudy,240,2013-02-14 22:00:00
6:00 PM,39.9,34.0,79,29.98,-9999.0,South,6.9,-,N/A,,Mostly Cloudy,170,2013-02-14 23:00:00
8:00 PM,35.1,33.1,92,30.00,-9999.0,South,3.5,-,N/A,,Clear,190,2013-02-15 01:00:00
9:00 PM,30.9,30.0,96,30.01,-9999.0,Calm,Calm,-,N/A,,Clear,0,2013-02-15 02:00:00
10:00 PM,28.9,27.0,92,30.02,-9999.0,SW,3.5,-,N/A,,Clear,220,2013-02-15 03:00:00
11:00 PM,33.1,30.9,92,30.01,-9999.0,SW,5.8,-,N/A,,Clear,220,2013-02-15 04:00:00